Location: Krasnoyarskiy Pitomnik
(51.1333°N, 71.6167°E)
Time: 09:47:30
(UTC+00:00)

Feng Yun 1-1 Rocket - Pass Details

Date: 22 October 2021
Orbit: 830 x 933 km, 99.2° (Epoch: 06 December)

Event Time Altitude Azimuth Distance (km) Brightness Sun altitude
Rises 13:21:34 0° 154° (SSE) 3,423 7.1 -12.4°
Reaches altitude 10° 13:23:54 10° 152° (SSE) 2,504 6.4 -12.8°
Maximum altitude 13:29:26 71° 70° (ENE) 937 4.2 -13.7°
Drops below altitude 10° 13:35:11 10° 348° (NNW) 2,591 6.9 -14.6°
Sets 13:37:38 0° 346° (NNW) 3,550 7.6 -14.9°
